Cape Byron Observation History
Time Wind Speed Temp Pressure Rel. Hum Rain
22/12:30pm S 37-47 kts 25.0°c 1010.1 hPa 66% 0.0mm
22/12:03pm S 40-51 kts 24.4°c 1010.3 hPa 68% 0.0mm
22/12:00pm S 40-49 kts 24.3°c 1010.3 hPa 70% 0.0mm
22/11:38am S 33-43 kts 25.3°c 1010.3 hPa 62% 0.0mm
22/11:30am S 35-42 kts 25.4°c 1010.4 hPa 62% 0.0mm
22/11:03am S 36-46 kts 25.2°c 1010.4 hPa 60% 0.0mm
22/11:00am S 37-46 kts 25.4°c 1010.3 hPa 58% 0.0mm
22/10:30am S 37-47 kts 24.2°c 1010.2 hPa 67% 0.0mm
22/10:00am SSE 35-48 kts 24.7°c 1010.4 hPa 69% 0.0mm
22/09:30am S 39-50 kts 24.8°c 1010.3 hPa 62% 0.0mm
22/09:13am S 34-44 kts 24.9°c 1010.2 hPa 67% 0.0mm
22/09:00am S 36-43 kts 24.3°c 1010.1 hPa 73% 5.4mm
22/08:39am S 34-44 kts 24.9°c 1010.0 hPa 65% 5.4mm
22/08:30am S 37-45 kts 24.8°c 1009.8 hPa 62% 5.4mm
22/08:12am SSE 37-47 kts 24.6°c 1009.7 hPa 61% 5.4mm
22/08:00am S 36-45 kts 24.2°c 1009.7 hPa 70% 5.4mm
22/07:57am S 34-44 kts 24.1°c 1009.7 hPa 74% 5.4mm
22/07:49am SSE 28-40 kts 23.9°c 1009.8 hPa 77% 5.4mm
22/07:48am SSE 27-38 kts 24.2°c 1009.7 hPa 80% 5.4mm
22/07:30am S 35-45 kts 24.1°c 1009.6 hPa 74% 5.4mm
22/07:00am SSE 30-41 kts 24.6°c 1009.5 hPa 72% 5.4mm
22/06:36am S 33-44 kts 24.4°c 1009.2 hPa 71% 5.4mm
22/06:30am SSE 34-42 kts 24.4°c 1009.3 hPa 70% 5.4mm
22/06:00am SSE 36-47 kts 24.3°c 1008.9 hPa 68% 5.4mm
22/05:30am SSE 33-44 kts 24.4°c 1008.7 hPa 72% 5.4mm
22/05:00am SSE 35-45 kts 24.1°c 1008.5 hPa 75% 5.4mm
22/04:30am SSE 34-46 kts 24.4°c 1008.5 hPa 74% 5.4mm
22/04:00am SSE 37-47 kts 24.4°c 1008.7 hPa 77% 5.4mm
22/03:34am S 33-43 kts 23.5°c 1008.8 hPa 85% 5.4mm
22/03:30am S 35-44 kts 23.3°c 1008.8 hPa 86% 5.4mm
22/03:00am S 33-43 kts 23.9°c 1008.9 hPa 84% 5.4mm
22/02:46am S 34-44 kts 24.3°c 1008.8 hPa 79% 5.0mm
22/02:30am S 36-43 kts 24.0°c 1009.1 hPa 83% 4.8mm
22/02:07am S 30-40 kts 24.5°c 1009.3 hPa 81% 4.8mm
22/02:00am S 31-40 kts 24.7°c 1009.4 hPa 82% 4.8mm
22/01:31am S 30-43 kts 23.9°c 1009.5 hPa 89% 4.8mm
22/01:30am S 30-38 kts 24.0°c 1009.5 hPa 90% 4.8mm
22/01:00am SSE 30-42 kts 23.7°c 1009.9 hPa 95% 3.8mm
22/12:56am SSE 28-42 kts 23.5°c 1009.8 hPa 95% 3.8mm
22/12:30am SSE 22-34 kts 22.6°c 1010.3 hPa 97% 3.6mm
22/12:11am SSE 25-43 kts 24.1°c 1010.3 hPa 84% 0.4mm
22/12:00am SSE 26-33 kts 24.3°c 1010.3 hPa 84% 0.4mm
Time Wind Speed Temp Pressure Rel. Hum Rain
21/11:30pm SSE 21-29 kts 25.3°c 1010.1 hPa 83% 0.4mm
21/11:00pm SSE 22-29 kts 25.4°c 1010.3 hPa 80% 0.4mm
21/10:30pm SSE 22-30 kts 25.4°c 1010.5 hPa 79% 0.4mm
21/10:00pm SSE 22-29 kts 25.6°c 1010.5 hPa 78% 0.4mm
21/09:30pm SSE 20-26 kts 25.6°c 1010.4 hPa 79% 0.4mm
21/09:23pm SSE 20-30 kts 25.6°c 1010.4 hPa 80% 0.4mm
21/09:00pm SSE 20-28 kts 25.6°c 1010.2 hPa 78% 0.4mm
21/08:30pm SSE 21-29 kts 25.6°c 1010.0 hPa 76% 0.4mm
21/08:00pm SSE 22-29 kts 25.6°c 1009.9 hPa 77% 0.4mm
21/07:30pm S 23-28 kts 25.8°c 1009.6 hPa 77% 0.4mm
21/07:00pm SSE 21-27 kts 25.5°c 1009.1 hPa 75% 0.4mm
21/06:30pm S 23-29 kts 25.8°c 1008.9 hPa 74% 0.4mm
21/06:00pm S 23-29 kts 26.4°c 1008.6 hPa 75% 0.4mm
21/05:30pm S 23-30 kts 26.7°c 1008.6 hPa 72% 0.4mm
21/05:00pm S 21-25 kts 26.9°c 1008.4 hPa 72% 0.4mm
21/04:30pm S 20-25 kts 26.8°c 1008.3 hPa 72% 0.4mm
21/04:00pm S 20-26 kts 26.9°c 1008.4 hPa 72% 0.4mm
21/03:30pm S 20-26 kts 27.0°c 1008.6 hPa 71% 0.4mm
21/03:00pm S 19-25 kts 27.1°c 1009.1 hPa 71% 0.4mm
21/02:30pm S 19-24 kts 27.1°c 1009.5 hPa 71% 0.4mm
21/02:00pm S 19-23 kts 26.9°c 1009.6 hPa 74% 0.4mm
21/01:30pm S 20-24 kts 27.0°c 1009.7 hPa 74% 0.4mm
21/01:00pm SSE 18-24 kts 27.3°c 1009.8 hPa 73% 0.4mm
21/12:30pm SSE 17-23 kts 26.5°c 1010.1 hPa 76% 0.4mm
21/12:00pm S 17-23 kts 24.4°c 1010.3 hPa 84% 0.4mm
21/11:30am S 13-16 kts 25.9°c 1010.4 hPa 78% 0.2mm
21/11:00am S 17-20 kts 25.7°c 1010.3 hPa 81% 0.2mm
21/10:30am SE 15-19 kts 25.6°c 1009.9 hPa 81% 0.2mm
21/10:00am SE 17-22 kts 26.0°c 1009.8 hPa 79% 0.2mm
21/09:30am ESE 19-25 kts 24.0°c 1009.6 hPa 93% 0.2mm
21/09:17am SE 24-29 kts 24.0°c 1009.4 hPa 91% 0.2mm
21/09:08am SSE 15-27 kts 25.0°c 1009.3 hPa 85% 0.0mm
21/09:00am SSE 15-18 kts 25.1°c 1009.5 hPa 83% 0.0mm
21/08:30am SE 17-23 kts 25.8°c 1009.1 hPa 81% 0.0mm
21/08:00am SSE 13-18 kts 25.4°c 1008.8 hPa 82% 0.0mm
21/07:30am S 11-18 kts 24.7°c 1008.6 hPa 93% 0.0mm
21/07:00am SW 11-16 kts 23.0°c 1008.4 hPa 93% 0.0mm
21/06:30am SW 10-14 kts 23.1°c 1008.1 hPa 91% 0.0mm
21/06:00am SSE 9-14 kts 24.9°c 1007.7 hPa 87% 0.0mm
21/05:30am SE 13-16 kts 24.8°c 1007.3 hPa 87% 0.0mm
21/05:00am SE 13-17 kts 24.7°c 1007.2 hPa 86% 0.0mm
21/04:30am SE 14-17 kts 24.6°c 1007.3 hPa 87% 0.0mm
21/04:00am ESE 15-19 kts 24.9°c 1007.4 hPa 87% 0.0mm
21/03:30am E 11-14 kts 25.1°c 1007.3 hPa 87% 0.0mm
21/03:00am ESE 13-17 kts 25.2°c 1007.3 hPa 85% 0.0mm
21/02:30am E 13-16 kts 24.9°c 1007.3 hPa 86% 0.0mm
21/02:00am E 11-14 kts 25.2°c 1007.6 hPa 86% 0.0mm
21/01:30am SSW 11-14 kts 24.6°c 1008.7 hPa 89% 0.0mm
21/01:00am SSW 11-15 kts 24.6°c 1009.3 hPa 87% 0.0mm
21/12:30am SSW 17-19 kts 25.2°c 1009.7 hPa 86% 0.0mm
21/12:00am SSW 16-20 kts 25.5°c 1010.2 hPa 86% 0.0mm
Time Wind Speed Temp Pressure Rel. Hum Rain
20/11:30pm S 16-19 kts 25.4°c 1010.2 hPa 84% 0.0mm
20/11:00pm SSE 12-15 kts 25.5°c 1010.1 hPa 85% 0.0mm
20/10:30pm ESE 13-16 kts 25.4°c 1009.5 hPa 84% 0.0mm
20/10:00pm E 14-16 kts 25.4°c 1009.5 hPa 83% 0.0mm
20/09:30pm E 10-13 kts 25.4°c 1009.0 hPa 84% 0.0mm
20/09:00pm E 9-13 kts 25.3°c 1008.3 hPa 83% 0.0mm
20/08:30pm ENE 5-9 kts 25.1°c 1007.7 hPa 82% 0.0mm
20/08:00pm ENE 5-8 kts 25.3°c 1007.2 hPa 80% 0.0mm
20/07:30pm E 6-8 kts 26.0°c 1007.1 hPa 77% 0.0mm
20/07:00pm ENE 6-9 kts 26.9°c 1006.7 hPa 72% 0.0mm
20/06:30pm ENE 8-11 kts 28.1°c 1006.3 hPa 68% 0.0mm
20/06:00pm E 11-16 kts 28.4°c 1006.2 hPa 67% 0.0mm
20/05:30pm E 14-16 kts 29.3°c 1006.2 hPa 63% 0.0mm
20/05:00pm E 14-17 kts 29.1°c 1006.3 hPa 62% 0.0mm
20/04:30pm E 15-17 kts 28.2°c 1006.4 hPa 62% 0.0mm
20/04:00pm E 14-17 kts 28.5°c 1006.8 hPa 60% 0.0mm
20/03:30pm ESE 15-17 kts 28.1°c 1007.0 hPa 63% 0.0mm
20/03:00pm SE 15-17 kts 28.0°c 1007.4 hPa 64% 0.0mm
20/02:30pm SE 14-17 kts 27.9°c 1007.8 hPa 61% 0.0mm
20/02:00pm SE 11-15 kts 27.8°c 1008.3 hPa 67% 0.0mm
20/01:30pm SE 11-15 kts 27.5°c 1008.8 hPa 68% 0.0mm
20/01:00pm SE 11-15 kts 27.9°c 1008.9 hPa 66% 0.0mm
20/12:30pm SSE 10-13 kts 28.0°c 1009.2 hPa 66% 0.0mm
20/12:00pm SSE 10-13 kts 27.3°c 1009.7 hPa 64% 0.0mm
20/11:30am SSE 8-12 kts 27.8°c 1009.9 hPa 64% 0.0mm
20/11:00am SSE 10-12 kts 27.7°c 1010.2 hPa 64% 0.0mm
20/10:30am SSE 8-11 kts 27.0°c 1010.3 hPa 66% 0.0mm
20/10:00am S 10-11 kts 26.1°c 1010.1 hPa 69% 0.0mm
20/09:30am SSW 8-9 kts 25.9°c 1009.9 hPa 72% 0.0mm
20/09:00am SSW 8-9 kts 25.2°c 1009.7 hPa 76% 0.0mm
20/08:30am SSW 5-7 kts 24.4°c 1009.5 hPa 80% 0.0mm
20/08:00am SSW 7-9 kts 24.5°c 1009.4 hPa 79% 0.0mm
20/07:30am E 8-10 kts 25.0°c 1009.2 hPa 76% 0.0mm
20/07:00am E 10-12 kts 24.1°c 1008.9 hPa 80% 0.0mm
20/06:30am ESE 7-9 kts 24.0°c 1008.6 hPa 80% 0.0mm
20/06:00am E 9-11 kts 24.0°c 1008.4 hPa 79% 0.0mm
20/05:30am E 7-10 kts 24.1°c 1008.2 hPa 81% 0.0mm
20/05:00am E 7-9 kts 23.9°c 1008.0 hPa 80% 0.0mm
20/04:30am E 9-12 kts 24.0°c 1007.8 hPa 81% 0.0mm
20/04:00am E 9-11 kts 24.0°c 1007.8 hPa 81% 0.0mm
20/03:30am ENE 6-9 kts 24.1°c 1007.8 hPa 82% 0.0mm
20/03:00am E 7-9 kts 24.3°c 1007.9 hPa 81% 0.0mm
20/02:30am E 4-7 kts 24.5°c 1008.2 hPa 80% 0.0mm
20/02:00am NE 8-11 kts 24.6°c 1008.2 hPa 80% 0.0mm
20/01:30am NNE 7-10 kts 24.6°c 1008.0 hPa 81% 0.0mm
20/01:00am NNE 9-12 kts 24.5°c 1008.2 hPa 82% 0.0mm
20/12:30am NNE 9-14 kts 24.6°c 1008.0 hPa 82% 0.0mm
20/12:00am NNE 11-15 kts 24.6°c 1008.1 hPa 81% 0.0mm